SCP
0 0 0 0 0 0 0 0 0 0 0 0 0 0 0 0 0 0 0 0 0 0 0 0 0 0 0 0 0 0 0 0 0 0 0 0 0 0 0 0 0 0 0 0
0 0 0 0 0 0 0 0 0 0 0 0 0 0 0 0 0 0 0 0 0 0 0 0 0 0 0 0 0 0 0 0 0 0 0 0 0 0 0 0 0 0 0 0
0 0 0 0 0 0 0 0 0 0 0 0 0 0 0 0 0 0 0 0 0 0 0 0 0 0 0 0 0 0 0 0 0 0 0 0 0 0 0 0 0 0 0 0
0 0 0 0 0 0 0 0 0 0 0 0 0 0 0 0 0 0 0 0 0 0 0 0 0 0 0 0 0 0 0 0 0 0 0 0 0 0 0 0 0 0 0 0
0 0 0 0 0 0 0 0 0 0 0 0 0 0 0 0 0 0 0 0 0 0 0 0 0 0 0 0 0 0 0 0 0 0 0 0 0 0 0 0 0 0 0 0
0 0 0 0 0 0 0 0 0 0 0 0 0 0 0 0 0 0 0 0 0 0 0 0 0 0 0 0 0 0 0 0 0 0 0 0 0 0 0 0 0 0 0 0
0 0 0 0 0 0 0 0 0 0 0 0 0 0 0 0 0 0 0 0 0 0 0 0 0 0 0 0 0 0 0 0 0 0 0 0 0 0 0 0 0 0 0 0
0 0 0 0 0 0 0 0 0 0 0 0 0 0 0 0 0 0 0 0 0 0 0 0 0 0 0 0 0 0 0 0 0 0 0 0 0 0 0 0 0 0 0 0
0 0 0 0 0 0 0 0 0 0 0 0 0 0 0 0 0 0 0 0 0 0 0 0 0 0 0 0 0 0 0 0 0 0 0 0 0 0 0 0 0 0 0 0
0 0 0 0 0 0 0 0 0 0 0 0 0 0 0 0 0 0 0 0 0 0 0 0 0 0 0 0 0 0 0 0 0 0 0 0 0 0 0 0 0 0 0 0
0 0 0 0 0 0 0 0 0 0 0 0 0 0 0 0 0 0 0 0 0 0 0 0 0 0 0 0 0 0 0 0 0 0 0 0 0 0 0 0 0 0 0 0
0 0 0 0 0 0 0 0 0 0 0 0 0 0 0 0 0 0 0 0 0 0 0 0 0 0 0 0 0 0 0 0 0 0 0 0 0 0 0 0 0 0 0 0
0 0 0 0 0 0 0 0 0 0 0 0 0 0 0 0 0 0 0 0 0 0 0 0 0 0 0 0 0 0 0 0 0 0 0 0 0 0 0 0 0 0 0 0
0 0 0 0 0 0 0 0 0 0 0 0 0 0 0 0 0 0 0 0 0 0 0 0 0 0 0 0 0 0 0 0 0 0 0 0 0 0 0 0 0 0 0 0
0 0 0 0 0 0 0 0 0 0 0 0 0 0 0 0 0 0 0 0 0 0 0 0 0 0 0 0 0 0 0 0 0 0 0 0 0 0 0 0 0 0 0 0
0 0 0 0 0 0 0 0 0 0 0 0 0 0 0 0 0 0 0 0 0 0 0 0 0 0 0 0 0 0 0 0 0 0 0 0 0 0 0 0 0 0 0 0
0 0 0 0 0 0 0 0 0 0 0 0 0 0 0 0 0 0 0 0 0 0 0 0 0 0 0 0 0 0 0 0 0 0 0 0 0 0 0 0 0 0 0 0
0 0 0 0 0 0 0 0 0 0 0 0 0 0 0 0 0 0 0 0 0 0 0 0 0 0 0 0 0 0 0 0 0 0 0 0 0 0 0 0 0 0 0 0
0 0 0 0 0 0 0 0 0 0 0 0 0 0 0 0 0 0 0 0 0 0 0 0 0 0 0 0 0 0 0 0 0 0 0 0 0 0 0 0 0 0 0 0
0 0 0 0 0 0 0 0 0 0 0 0 0 0 0 0 0 0 0 0 0 0 0 0 0 0 0 0 0 0 0 0 0 0 0 0 0 0 0 0 0 0 0 0
0 0 0 0 0 0 0 0 0 0 0 0 0 0 0 0 0 0 0 0 0 0 0 0 0 0 0 0 0 0 0 0 0 0 0 0 0 0 0 0 0 0 0 0
0 0 0 0 0 0 0 0 0 0 0 0 0 0 0 0 0 0 0 0 0 0 0 0 0 0 0 0 0 0 0 0 0 0 0 0 0 0 0 0 0 0 0 0
0 0 0 0 0 0 0 0 0 0 0 0 0 0 0 0 0 0 0 0 0 0 0 0 0 0 0 0 0 0 0 0 0 0 0 0 0 0 0 0 0 0 0 0
0 0 0 0 0 0 0 0 0 0 0 0 0 0 0 0 0 0 0 0 0 0 0 0 0 0 0 0 0 0 0 0 0 0 0 0 0 0 0 0 0 0 0 0
0 0 0 0 0 0 0 0 0 0 0 0 0 0 0 0 0 0 0 0 0 0 0 0 0 0 0 0 0 0 0 0 0 0 0 0 0 0 0 0 0 0 0 0
0 0 0 0 0 0 0 0 0 0 0 0 0 0 0 0 0 0 0 0 0 0 0 0 0 0 0 0 0 0 0 0 0 0 0 0 0 0 0 0 0 0 0 0
0 0 0 0 0 0 0 0 0 0 0 0 0 0 0 0 0 0 0 0 0 0 0 0 0 0 0 0 0 0 0 0 0 0 0 0 0 0 0 0 0 0 0 0
Wind_Speed
9 10 9 8 10 9 7 7 7 10 13 14 14 15 17 19 20 18 17 19 19 19 18 18 18 17 16 14 13 12 11 11 11 11 11 11 11 11 10 9 8 8 7 7
7 8 5 9 8 5 4 6 9 12 12 11 13 14 17 20 18 17 18 19 20 19 19 18 18 17 16 14 13 12 11 11 11 11 11 10 10 10 10 10 9 10 10 9
5 9 10 4 6 6 5 7 8 10 8 12 15 18 19 19 14 17 19 18 18 17 16 16 16 16 15 13 12 11 11 10 10 11 11 11 10 9 9 9 8 8 8 8
5 6 4 3 7 6 5 7 8 8 11 13 14 16 16 12 16 18 17 16 15 14 14 14 15 14 13 11 11 10 10 10 9 9 10 10 10 10 9 7 6 6 6 6
2 5 8 6 5 5 6 9 6 9 12 14 17 16 8 13 15 15 14 13 12 12 12 12 13 13 12 10 10 9 10 9 9 9 10 9 9 9 7 7 6 5 4 5
1 2 5 4 3 5 6 6 9 11 12 14 16 15 10 14 14 13 13 12 12 11 11 11 12 12 11 10 10 11 10 9 8 8 9 8 9 8 6 6 6 6 5 4
3 4 5 4 4 7 4 6 10 11 11 12 12 11 14 14 12 12 12 12 12 11 9 9 10 10 10 10 11 12 11 10 8 8 7 7 7 6 6 6 6 5 4 4
2 3 4 5 6 4 6 7 8 8 8 11 13 14 13 13 12 12 12 12 12 10 9 8 9 8 9 10 11 12 11 10 9 8 8 8 7 6 6 6 6 6 5 5
2 3 5 5 5 5 5 7 7 7 9 10 12 12 12 12 11 11 11 11 10 10 9 8 8 7 8 10 12 12 12 11 9 9 7 8 7 6 6 6 5 6 6 6
4 4 5 5 5 6 6 6 7 8 9 9 9 10 11 10 9 10 10 9 9 9 9 9 8 7 7 9 11 11 11 11 10 9 8 8 7 6 4 4 4 6 7 7
4 5 4 4 7 9 7 7 7 9 10 8 8 8 9 8 8 8 9 8 7 8 8 8 9 8 8 9 11 10 10 10 10 9 8 7 7 8 8 4 5 5 3 4
2 4 4 7 8 8 6 6 7 9 9 8 7 8 8 7 6 6 7 7 7 8 8 8 9 9 9 10 10 11 11 10 9 8 8 8 7 8 13 15 17 15 11 8
4 6 6 8 7 6 3 4 5 6 6 6 6 6 7 6 5 6 6 7 8 9 8 9 9 10 10 10 11 11 11 11 9 10 10 9 9 8 8 11 15 17 17 16
4 4 6 6 7 5 3 4 3 4 4 4 5 6 6 6 6 6 7 7 7 8 8 8 9 10 9 10 12 11 10 12 11 7 8 8 7 8 8 9 9 8 12 17
4 5 6 9 7 5 5 4 4 4 4 5 5 5 6 6 7 7 6 7 8 8 8 8 10 10 9 10 12 11 10 8 6 5 6 7 8 8 7 8 7 8 7 9
5 6 7 7 7 6 6 5 4 4 4 5 5 5 6 7 7 6 7 8 8 9 8 7 9 11 9 9 10 8 7 17 15 7 6 7 7 7 7 6 6 6 6 6
4 6 7 7 7 5 4 4 4 4 4 4 4 5 6 6 7 8 8 8 7 7 7 7 10 12 10 8 8 6 6 9 17 10 6 5 5 5 5 5 5 6 5 8
4 5 5 4 3 3 4 4 4 4 3 4 5 5 6 7 7 8 8 8 7 7 7 9 11 9 8 9 7 5 5 6 6 6 6 6 7 6 5 5 6 6 4 7
5 4 4 5 5 4 4 3 2 2 3 4 5 5 5 5 6 7 8 8 7 7 9 11 18 11 10 13 14 5 6 7 8 7 7 12 11 6 6 6 6 6 6 6
3 1 4 6 5 3 3 1 1 3 4 4 5 5 6 7 7 7 7 7 4 6 10 13 10 8 10 12 17 7 7 9 10 9 9 9 9 9 9 9 8 7 7 6
2 2 6 6 4 3 3 3 4 4 3 4 4 5 6 7 7 6 6 6 7 10 13 17 10 9 11 15 18 8 9 11 11 11 11 11 11 11 11 10 11 10 8 7
2 5 7 6 5 4 4 4 4 3 3 4 4 5 6 7 7 7 6 5 7 16 12 8 8 15 21 23 10 10 12 13 13 12 12 12 13 13 13 13 12 12 10 8
5 6 7 6 6 5 4 4 3 3 3 4 4 5 6 7 6 6 7 7 8 17 13 9 18 27 31 16 11 13 14 15 15 15 15 14 14 14 14 15 13 12 9 7
7 7 7 7 6 5 4 2 1 1 2 4 3 4 5 5 5 4 6 14 18 20 12 17 27 30 28 13 13 14 14 15 15 15 16 16 15 14 14 13 12 11 10 10
7 7 6 6 5 4 4 3 2 3 4 2 2 3 4 3 4 7 7 10 17 19 12 17 26 28 18 13 14 15 15 15 17 17 16 16 16 15 14 13 12 11 9 7
5 5 5 4 4 4 3 3 1 1 2 2 2 3 4 4 5 6 7 10 13 18 14 11 13 17 13 14 15 17 16 17 17 16 17 17 18 17 15 12 12 8 6 5
6 5 4 4 3 3 2 2 2 2 2 3 3 4 4 5 6 7 9 10 11 11 11 11 11 12 13 14 15 16 16 15 16 16 16 15 15 15 14 12 5 1 3 3
Wind_Direction
298 300 298 302 306 307 300 298 301 321 331 345 1 354 347 340 338 345 349 349 349 348 346 346 347 348 351 355 1 1 360 358 352 345 341 341 342 343 344 346 353 360 6 12
285 279 289 279 282 302 344 346 330 328 325 352 352 347 342 336 343 347 345 347 349 349 349 350 352 352 354 357 358 357 358 357 351 346 344 345 345 349 355 3 11 14 12 10
291 333 322 314 57 43 14 341 332 322 334 352 345 345 337 332 352 346 345 347 350 350 350 352 354 352 351 352 352 355 355 354 350 347 347 348 348 354 0 4 9 14 11 10
299 331 318 44 65 45 352 322 339 358 351 346 345 335 322 350 358 347 346 349 351 351 351 353 350 347 345 348 350 351 350 348 345 346 347 350 354 356 357 357 360 2 359 2
341 315 289 91 46 14 333 308 28 357 345 345 341 324 321 13 356 348 350 352 351 350 351 350 347 341 340 344 345 346 345 344 345 347 345 348 351 350 349 347 350 349 355 2
255 286 286 61 31 336 323 296 17 0 348 345 339 325 331 353 351 352 353 353 352 349 352 351 342 337 339 345 346 344 341 340 343 347 344 346 342 340 344 342 342 344 347 345
242 254 276 63 356 355 337 314 351 352 349 343 330 316 321 338 345 349 351 353 352 348 349 342 332 334 341 346 347 340 337 340 345 345 339 344 336 334 340 340 337 333 324 320
221 252 278 26 7 359 307 329 344 352 350 334 321 321 329 336 341 349 352 352 350 345 340 332 326 334 342 346 341 337 337 341 343 343 344 348 334 335 342 340 341 340 338 342
288 257 349 17 349 331 346 342 351 355 347 335 325 328 332 336 342 351 351 348 345 340 331 326 326 337 345 343 341 340 340 340 339 342 343 339 335 339 350 347 352 351 353 358
302 310 328 333 335 348 2 6 10 3 345 336 331 332 334 336 345 350 345 343 339 332 325 323 327 338 345 343 340 339 339 338 339 340 342 340 341 342 346 345 352 352 347 348
264 285 322 359 353 352 6 16 7 352 339 340 340 335 336 339 348 345 339 335 328 319 318 326 333 339 347 345 340 337 336 337 339 342 337 336 342 340 338 324 327 333 330 331
301 20 347 319 333 357 5 9 7 346 335 345 347 337 342 346 346 338 331 324 319 318 329 335 338 341 347 345 340 339 340 339 340 340 337 339 338 339 342 342 342 344 338 331
339 338 315 306 328 345 353 28 12 345 336 341 348 351 352 345 341 335 326 320 319 325 337 341 340 341 344 343 342 341 339 338 344 344 339 340 342 341 339 341 347 349 347 341
316 320 312 310 301 313 56 56 16 351 4 3 1 2 355 341 335 327 315 313 324 335 343 340 338 337 340 341 343 340 336 339 346 336 334 336 339 338 338 341 341 340 339 337
1 355 309 298 312 8 49 35 11 9 14 15 16 8 350 333 317 305 315 339 342 339 335 336 337 335 340 344 344 338 337 331 331 327 331 335 336 334 335 337 334 330 327 330
332 316 308 324 341 3 19 21 14 14 18 13 9 350 324 305 301 328 356 349 338 331 331 339 334 332 338 338 335 330 327 334 339 335 329 327 324 323 322 319 317 315 315 314
320 308 311 318 330 358 28 46 39 23 19 12 349 324 317 327 347 353 341 329 321 319 330 335 324 324 324 320 314 313 311 319 331 329 306 300 296 292 291 293 295 302 303 316
321 304 317 337 6 30 57 67 53 36 17 347 336 341 351 356 346 331 323 320 319 325 327 322 313 320 316 307 302 298 301 301 300 298 295 292 291 282 283 282 285 294 298 313
325 331 9 56 68 76 82 79 65 37 9 4 1 354 348 348 332 321 322 320 324 326 316 309 324 336 316 311 317 295 294 295 296 291 288 294 299 283 278 277 278 279 285 299
305 351 91 92 84 92 108 129 119 73 43 13 6 0 348 333 322 320 320 316 314 301 306 316 325 319 313 306 314 303 295 294 292 291 288 283 280 278 276 276 275 272 270 273
316 111 119 121 122 120 85 59 59 60 36 20 13 344 322 315 317 317 315 313 309 313 320 326 326 310 308 311 318 305 297 295 294 291 289 286 283 280 276 272 271 271 265 260
133 129 133 136 130 103 74 64 65 53 27 16 3 345 334 329 325 321 309 293 308 320 324 311 307 308 314 320 313 306 303 301 299 297 293 290 287 284 280 277 271 268 264 253
108 120 126 125 120 109 87 65 54 48 28 5 352 340 329 316 313 320 323 315 314 319 324 309 311 318 323 327 316 312 309 307 305 302 298 294 289 285 281 277 271 267 259 248
108 107 108 107 110 115 117 113 65 33 314 296 294 293 299 311 314 310 305 315 322 322 318 314 322 327 332 328 317 314 313 310 307 304 301 298 294 289 284 279 273 266 258 252
113 115 118 127 135 138 139 157 206 258 266 277 309 320 314 308 304 307 308 309 317 322 318 320 326 330 330 319 319 318 316 312 312 312 309 306 301 295 288 279 270 263 256 248
133 133 134 132 128 137 158 179 170 79 8 352 340 328 319 311 307 308 310 311 313 321 323 319 321 326 326 324 324 322 321 319 319 316 312 311 308 305 298 288 268 247 233 223
118 117 118 117 128 138 136 120 101 74 29 355 334 328 323 320 319 319 319 319 320 322 322 325 328 329 329 329 328 327 326 325 324 323 322 323 326 330 333 332 336 131 141 145